Location: Helion Bumpstead
(52.0500°N, 0.4000°E)
Time: 21:35:38
(UTC+00:00)

Orbus 7S? - Pass Details

Date: 15 November 2025
Orbit: 354 x 6170 km, 56.9° (Epoch: 30 September)

Event Time Altitude Azimuth Distance (km) Brightness Sun altitude
Exits shadow 06:27:55 - 267° (W) 2,282 5.9 -7.9°
Reaches altitude 10° 06:28:36 10° 269° (W) 1,975 5.6 -7.8°
Maximum altitude 06:32:19 42° 342° (NNW) 617 3.3 -7.3°
Drops below altitude 10° 06:34:54 10° 57° (ENE) 1,355 5.9 -6.9°
Sets 06:36:42 0° 66° (ENE) 2,185 7.1 -6.6°
